Über Miyan Wuliaoyuan
Group: 3 satellites
Beschreibung wird geladen...
Live-Position
3D-Globus wird geladen...
Nächste Überflüge
Höhenverlauf
Altitude vs Time
uPlot chart will show altitude changes over time
Zweizeiliger Elementsatz
1 63991U 25100K 25340.82185055 .00021392 00000-0 97999-3 0 9997
2 63991 97.3867 52.8317 0010465 271.2180 88.7856 15.20450466 31394
Epoch: 6. Dez. 2025 •
Age: 15 hours
Aktueller Status
Höhe 507.6 km
Geschwindigkeit 7.61 km/s
Subsatellitenpunkt -5.79°S,
5.09°W
Startdatum 14. Mai 2025
Alter 0.5 years
Typ other
Technische Details
Klassifizierung Payload
Masse 50.00 kg
Trockenmasse 50.00 kg
Gesamtmasse 50.00 kg
Länge 0.30 m
Durchmesser 0.30 m
Spannweite 0.30 m
Form Box + 2 pan
Hersteller GUOX
Bus-Typ XSD
Phasenstatus In Orbit
Besitzer/Staat GUOX/ZJLAB/CN
Große Konstellationen
Loading constellations...